KE4AMH Weather Reports


time (UTC)temp
C
wind
direction
speed
KPH
gust
KPH
rain 1hr
cm
rain 24hr
cm
rain mn
cm
humidity
%
barometer
mb
20260509032541 15 352 0.0 0.0 0.00 0.00 0.00 93 1014.8
20260509032038 15 0 0.0 1.6 0.00 0.00 0.00 92 1014.9
20260509031536 15 15 0.0 1.6 0.00 0.00 0.00 91 1015.1
20260509031033 15 0 0.0 0.0 0.00 0.00 0.00 91 1014.8
20260509030531 15 166 0.0 0.0 0.00 0.00 0.00 91 1015.1
20260509030027 15 166 0.0 0.0 0.00 0.00 0.00 90 1014.9
20260509025524 15 166 0.0 0.0 0.00 0.00 0.00 90 1015.0
20260509025019 15 166 0.0 0.0 0.00 0.00 0.00 89 1015.0
20260509024516 15 166 0.0 0.0 0.00 0.00 0.00 90 1014.7
20260509024012 15 172 0.0 0.0 0.00 0.00 0.00 90 1014.6
20260509023510 15 352 0.0 0.0 0.00 0.00 0.00 91 1014.7
20260509023006 15 352 0.0 0.0 0.00 0.00 0.00 91 1015.0
20260509022503 15 0 0.0 0.0 0.00 0.00 0.00 91 1014.4
20260509022001 15 0 0.0 0.0 0.00 0.00 0.00 90 1014.5
20260509021457 15 0 0.0 0.0 0.00 0.00 0.00 90 1014.5
20260509020954 15 0 0.0 0.0 0.00 0.00 0.00 90 1014.8
20260509020453 15 0 1.6 1.6 0.00 0.00 0.00 91 1014.4
20260509015949 15 14 0.0 1.6 0.00 0.00 0.00 90 1014.5
20260509015448 15 15 0.0 3.2 0.00 0.00 0.00 89 1014.5
20260509014944 15 18 1.6 3.2 0.00 0.00 0.00 89 1014.5
20260509014441 15 29 0.0 0.0 0.00 0.00 0.00 89 1014.6
20260509013937 15 29 0.0 1.6 0.00 0.00 0.00 90 1014.7
20260509013435 15 14 0.0 3.2 0.00 0.00 0.00 89 1014.7
20260509012930 15 0 0.0 1.6 0.00 0.00 0.00 88 1014.5
20260509012427 15 8 0.0 0.0 0.00 0.00 0.00 87 1014.5
20260509011924 15 8 0.0 0.0 0.00 0.00 0.00 87 1014.3
20260509011421 15 8 0.0 0.0 0.00 0.00 0.00 87 1014.5
20260509010919 15 15 0.0 1.6 0.00 0.00 0.00 87 1014.0
20260509010417 16 352 0.0 0.0 0.00 0.00 0.00 87 1014.2
20260509005913 16 0 0.0 0.0 0.00 0.00 0.00 87 1014.2
20260509005411 16 270 0.0 0.0 0.00 0.00 0.00 86 1014.2
20260509004911 16 270 0.0 0.0 0.00 0.00 0.00 85 1014.2
20260509004408 16 286 0.0 0.0 0.00 0.00 0.00 84 1014.0
20260509003906 16 345 0.0 0.0 0.00 0.00 0.00 85 1014.0
20260509003403 16 345 0.0 0.0 0.00 0.00 0.00 86 1013.9
20260509002900 16 345 0.0 1.6 0.00 0.00 0.00 84 1013.9
20260509002358 16 0 0.0 0.0 0.00 0.00 0.00 84 1014.3
20260509001855 16 0 0.0 0.0 0.00 0.00 0.00 82 1014.3
20260509001351 17 0 0.0 0.0 0.00 0.00 0.00 82 1014.1
20260509000849 17 352 0.0 1.6 0.00 0.00 0.00 81 1014.2
20260509000348 17 0 0.0 0.0 0.00 0.00 0.00 80 1014.1
20260508235842 17 0 0.0 0.0 0.00 0.00 0.00 79 1014.1
20260508235339 17 352 0.0 0.0 0.00 0.00 0.00 78 1014.3
20260508234836 17 352 0.0 0.0 0.00 0.00 0.00 77 1014.0
20260508234333 17 352 0.0 0.0 0.00 0.00 0.00 77 1014.2
20260508233831 17 352 0.0 0.0 0.00 0.00 0.00 77 1014.0
20260508233330 17 352 0.0 0.0 0.00 0.00 0.00 77 1013.9
20260508232827 18 352 0.0 0.0 0.00 0.00 0.00 76 1013.8
20260508232323 18 352 0.0 0.0 0.00 0.00 0.00 76 1014.0
20260508231822 18 0 0.0 0.0 0.00 0.00 0.00 74 1014.0
20260508231317 18 180 0.0 0.0 0.00 0.00 0.00 72 1013.9
20260508230814 19 180 0.0 0.0 0.00 0.00 0.00 72 1014.0
20260508230311 19 180 0.0 0.0 0.00 0.00 0.00 71 1014.0
20260508225809 19 180 0.0 0.0 0.00 0.00 0.00 68 1014.1
20260508225306 19 180 0.0 0.0 0.00 0.00 0.00 68 1014.1
20260508224803 20 180 0.0 0.0 0.00 0.00 0.00 67 1013.9
20260508224300 20 180 0.0 0.0 0.00 0.00 0.00 67 1014.0
20260508223758 20 8 0.0 1.6 0.00 0.00 0.00 66 1014.0
20260508223255 20 0 0.0 1.6 0.00 0.00 0.00 65 1014.1
20260508222752 20 186 0.0 0.0 0.00 0.00 0.00 64 1014.1
20260508222249 20 172 0.0 0.0 0.00 0.00 0.00 66 1014.0
20260508221746 20 0 0.0 1.6 0.00 0.00 0.00 64 1014.0
20260508221242 20 0 0.0 1.6 0.00 0.00 0.00 63 1014.2
20260508220738 20 306 1.6 3.2 0.00 0.00 0.00 62 1014.2
20260508220235 20 279 0.0 0.0 0.00 0.00 0.00 62 1014.1
20260508215731 20 23 0.0 0.0 0.00 0.00 0.00 62 1014.0
20260508215227 20 262 0.0 3.2 0.00 0.00 0.00 63 1014.1
20260508214725 20 23 0.0 4.8 0.00 0.00 0.00 62 1013.9
20260508214222 20 0 0.0 1.6 0.00 0.00 0.00 61 1014.0
20260508213718 20 306 0.0 3.2 0.00 0.00 0.00 61 1013.9
20260508213215 20 246 0.0 3.2 0.00 0.00 0.00 62 1014.0
20260508212712 20 180 3.2 3.2 0.00 0.00 0.00 59 1013.8
20260508212208 21 279 0.0 3.2 0.00 0.00 0.00 60 1014.0
20260508211704 20 180 0.0 4.8 0.00 0.00 0.00 60 1014.1
20260508211200 20 277 0.0 3.2 0.00 0.00 0.00 61 1014.0
20260508210657 21 169 3.2 4.8 0.00 0.00 0.00 58 1014.0
20260508210154 21 173 0.0 1.6 0.00 0.00 0.00 60 1014.0
20260508205651 21 334 0.0 3.2 0.00 0.00 0.00 62 1014.2
20260508205147 21 63 1.6 4.8 0.00 0.00 0.00 59 1014.2
20260508204644 21 300 0.0 6.4 0.00 0.00 0.00 62 1014.2
20260508204140 21 208 4.8 4.8 0.00 0.00 0.00 57 1014.2
20260508203636 21 300 0.0 4.8 0.00 0.00 0.00 58 1014.3
20260508203133 21 174 9.7 9.7 0.00 0.00 0.00 58 1014.0
20260508202629 21 270 0.0 3.2 0.00 0.00 0.00 58 1014.2
20260508202126 21 294 3.2 6.4 0.00 0.00 0.00 60 1014.2
20260508201623 21 0 0.0 3.2 0.00 0.00 0.00 56 1014.4
20260508201119 21 96 0.0 3.2 0.00 0.00 0.00 56 1014.4
20260508200616 21 291 0.0 8.0 0.00 0.00 0.00 57 1014.6
20260508200112 21 291 1.6 4.8 0.00 0.00 0.00 57 1014.6
20260508195609 21 306 0.0 8.0 0.00 0.00 0.00 57 1014.6
20260508195105 22 261 0.0 1.6 0.00 0.00 0.00 57 1014.6
20260508194602 22 286 0.0 4.8 0.00 0.00 0.00 58 1014.5
20260508194059 21 164 0.0 6.4 0.00 0.00 0.00 54 1014.7
20260508193556 21 180 1.6 8.0 0.00 0.00 0.00 56 1014.7
20260508193053 22 169 4.8 6.4 0.00 0.00 0.00 53 1015.1
20260508192549 22 337 0.0 4.8 0.00 0.00 0.00 57 1015.0
20260508192047 21 246 0.0 3.2 0.00 0.00 0.00 58 1015.2
20260508191543 21 340 1.6 4.8 0.00 0.00 0.00 56 1015.3
20260508191040 21 278 0.0 3.2 0.00 0.00 0.00 59 1015.1
20260508190537 21 180 3.2 4.8 0.00 0.00 0.00 56 1015.3
20260508190033 21 200 4.8 6.4 0.00 0.00 0.00 56 1015.0
20260508185531 21 342 1.6 8.0 0.00 0.00 0.00 55 1015.4
20260508185028 22 167 8.0 8.0 0.00 0.00 0.00 56 1015.5
20260508184526 22 276 1.6 8.0 0.00 0.00 0.00 55 1015.6
20260508184022 21 168 1.6 11.3 0.00 0.00 0.00 54 1015.4
20260508183519 21 180 6.4 9.7 0.00 0.00 0.00 54 1015.4
20260508183015 21 79 0.0 4.8 0.00 0.00 0.00 55 1015.7
20260508182511 21 165 3.2 4.8 0.00 0.00 0.00 55 1015.7
20260508182008 21 34 3.2 6.4 0.00 0.00 0.00 58 1015.8
20260508181503 20 213 0.0 4.8 0.00 0.00 0.00 58 1016.0
20260508181001 20 261 0.0 4.8 0.00 0.00 0.00 58 1016.3
20260508180458 21 5 1.6 3.2 0.00 0.00 0.00 58 1016.0
20260508175954 20 184 0.0 4.8 0.00 0.00 0.00 57 1015.9
20260508175450 21 4 3.2 8.0 0.00 0.00 0.00 59 1016.0
20260508174948 21 109 6.4 6.4 0.00 0.00 0.00 58 1016.3
20260508174445 21 192 4.8 9.7 0.00 0.00 0.00 57 1016.0
20260508173942 21 7 0.0 8.0 0.00 0.00 0.00 56 1016.4
20260508173439 22 172 6.4 6.4 0.00 0.00 0.00 57 1016.6
20260508172935 20 277 4.8 8.0 0.00 0.00 0.00 57 1016.3
20260508172433 20 195 1.6 4.8 0.00 0.00 0.00 57 1016.5
20260508171929 21 18 0.0 8.0 0.00 0.00 0.00 58 1016.7
20260508171425 21 270 3.2 4.8 0.00 0.00 0.00 61 1016.6
20260508170922 20 144 0.0 9.7 0.00 0.00 0.00 58 1016.8
20260508170419 21 0 1.6 6.4 0.00 0.00 0.00 58 1016.7
20260508165916 21 341 3.2 6.4 0.00 0.00 0.00 59 1016.9
20260508165414 21 177 3.2 6.4 0.00 0.00 0.00 56 1016.9
20260508164909 19 194 0.0 6.4 0.00 0.00 0.00 59 1017.2
20260508164407 20 0 0.0 8.0 0.00 0.00 0.00 59 1017.1
20260508163904 21 312 3.2 6.4 0.00 0.00 0.00 57 1017.2
20260508163402 20 299 3.2 9.7 0.00 0.00 0.00 58 1017.3
20260508162857 20 188 4.8 8.0 0.00 0.00 0.00 60 1017.5
20260508162354 20 270 0.0 6.4 0.00 0.00 0.00 56 1017.6
20260508161851 20 188 0.0 4.8 0.00 0.00 0.00 56 1017.3
20260508161349 20 210 8.0 8.0 0.00 0.00 0.00 57 1017.6
20260508160846 20 90 0.0 9.7 0.00 0.00 0.00 58 1017.8
20260508160345 20 270 0.0 6.4 0.00 0.00 0.00 59 1017.7
20260508155840 20 168 4.8 11.3 0.00 0.00 0.00 56 1017.7
20260508155338 20 180 3.2 3.2 0.00 0.00 0.00 57 1017.6
20260508154834 20 240 3.2 9.7 0.00 0.00 0.00 60 1018.1
20260508154332 20 290 3.2 8.0 0.00 0.00 0.00 56 1017.8
20260508153828 20 203 0.0 6.4 0.00 0.00 0.00 58 1018.1
20260508153326 20 165 1.6 6.4 0.00 0.00 0.00 59 1018.2
20260508152821 19 189 4.8 9.7 0.00 0.00 0.00 60 1018.3
20260508152318 20 59 0.0 4.8 0.00 0.00 0.00 59 1018.3
20260508151815 20 30 3.2 8.0 0.00 0.00 0.00 61 1018.2
20260508151312 20 358 4.8 8.0 0.00 0.00 0.00 61 1018.2
20260508150808 19 322 4.8 8.0 0.00 0.00 0.00 65 1018.3
20260508150305 20 346 4.8 4.8 0.00 0.00 0.00 63 1018.4
20260508145802 20 203 3.2 4.8 0.00 0.00 0.00 66 1018.1
20260508145257 19 180 0.0 8.0 0.00 0.00 0.00 66 1018.2
20260508144754 19 347 4.8 6.4 0.00 0.00 0.00 64 1018.0
20260508144252 19 26 1.6 4.8 0.00 0.00 0.00 66 1018.2
20260508143749 17 355 0.0 4.8 0.00 0.00 0.00 68 1018.0
20260508143246 17 94 3.2 6.4 0.00 0.00 0.00 68 1018.0
20260508142743 18 351 3.2 4.8 0.00 0.00 0.00 68 1018.2
20260508142240 18 18 4.8 8.0 0.00 0.00 0.00 66 1017.9
20260508141736 18 26 1.6 6.4 0.00 0.00 0.00 67 1017.9
20260508141234 17 59 3.2 8.0 0.00 0.00 0.00 66 1018.0
20260508140731 18 29 3.2 8.0 0.00 0.00 0.00 67 1018.1
20260508140227 17 356 3.2 6.4 0.00 0.00 0.00 66 1018.2
20260508135724 17 38 3.2 6.4 0.00 0.00 0.00 68 1018.4
20260508135219 17 29 4.8 6.4 0.00 0.00 0.00 72 1018.4
20260508134710 18 45 3.2 4.8 0.00 0.00 0.00 72 1018.3
20260508134207 16 0 0.0 4.8 0.00 0.00 0.00 74 1018.6
20260508133704 16 20 0.0 4.8 0.00 0.00 0.00 76 1018.4
20260508133201 16 36 3.2 6.4 0.00 0.00 0.00 79 1018.4
20260508132659 16 0 0.0 4.8 0.00 0.00 0.00 81 1018.5
20260508132156 16 346 0.0 4.8 0.00 0.00 0.00 81 1018.5
20260508131651 16 15 0.0 3.2 0.00 0.00 0.00 84 1018.2
20260508131148 15 115 3.2 3.2 0.00 0.00 0.00 85 1018.2
20260508130645 15 40 0.0 3.2 0.00 0.00 0.00 86 1018.5
20260508130142 15 0 0.0 1.6 0.00 0.00 0.00 87 1018.4
20260508125637 15 0 0.0 3.2 0.00 0.00 0.00 87 1018.2
20260508125135 14 84 1.6 4.8 0.00 0.00 0.00 88 1018.3
20260508124633 13 45 0.0 4.8 0.00 0.00 0.00 91 1018.2
20260508124129 13 41 3.2 4.8 0.00 0.00 0.00 92 1018.2
20260508123628 12 77 1.6 4.8 0.00 0.00 0.00 93 1018.0
20260508123125 12 69 1.6 4.8 0.00 0.00 0.00 96 1017.9
20260508122621 12 83 0.0 3.2 0.00 0.00 0.00 98 1017.7
20260508122118 11 35 0.0 3.2 0.00 0.00 0.00 99 1017.9
20260508121617 11 67 3.2 3.2 0.00 0.00 0.00 99 1017.7
20260508121114 11 90 0.0 1.6 0.00 0.00 0.00 99 1017.6
20260508120611 10 75 0.0 1.6 0.00 0.00 0.00 99 1017.5
20260508120110 10 81 0.0 1.6 0.00 0.00 0.00 99 1017.5
20260508115607 10 45 0.0 3.2 0.00 0.00 0.00 99 1017.5
20260508115103 10 15 0.0 0.0 0.00 0.00 0.00 99 1017.2
20260508114601 10 15 0.0 1.6 0.00 0.00 0.00 99 1017.4
20260508114056 10 8 0.0 0.0 0.00 0.00 0.00 99 1017.3
20260508113554 10 353 0.0 1.6 0.00 0.00 0.00 99 1017.2
20260508113052 10 15 0.0 1.6 0.00 0.00 0.00 99 1017.0
20260508112548 10 66 0.0 1.6 0.00 0.00 0.00 99 1016.8
20260508112045 9 23 0.0 1.6 0.00 0.00 0.00 99 1017.1
20260508111542 10 8 0.0 0.0 0.00 0.00 0.00 99 1017.1
20260508111039 9 8 0.0 0.0 0.00 0.00 0.00 99 1016.7
20260508110537 9 8 0.0 0.0 0.00 0.00 0.00 99 1016.7
20260508110033 9 8 0.0 0.0 0.00 0.00 0.00 99 1016.3
20260508105527 9 7 0.0 1.6 0.00 0.00 0.00 99 1016.1
20260508105025 9 8 0.0 1.6 0.00 0.00 0.00 99 1016.0
20260508104523 9 8 0.0 1.6 0.00 0.00 0.00 99 1015.9
20260508104019 9 60 0.0 1.6 0.00 0.00 0.00 99 1015.9
20260508103516 9 0 1.6 1.6 0.00 0.00 0.00 99 1015.7
20260508103014 9 40 1.6 3.2 0.00 0.00 0.00 99 1015.9
20260508102511 9 7 1.6 1.6 0.00 0.00 0.00 99 1015.6
20260508102009 10 0 0.0 0.0 0.00 0.00 0.00 99 1015.8
20260508101506 10 0 0.0 0.0 0.00 0.00 0.00 99 1015.6
20260508101003 9 0 0.0 0.0 0.00 0.00 0.00 99 1015.5
20260508100501 9 0 0.0 0.0 0.00 0.00 0.00 99 1015.4
20260508095957 9 0 0.0 0.0 0.00 0.00 0.00 99 1015.5
20260508095455 9 0 0.0 0.0 0.00 0.00 0.00 99 1015.4
20260508094952 10 348 0.0 0.0 0.00 0.00 0.00 99 1015.4
20260508094448 10 348 0.0 1.6 0.00 0.00 0.00 99 1015.2
20260508093945 10 8 0.0 1.6 0.00 0.00 0.00 99 1015.2
20260508093442 10 26 1.6 3.2 0.00 0.00 0.00 99 1015.1
20260508092940 10 20 1.6 1.6 0.00 0.00 0.00 98 1015.1
20260508092438 10 14 1.6 3.2 0.00 0.00 0.00 98 1015.1
20260508091936 10 19 3.2 3.2 0.00 0.00 0.00 98 1015.3
20260508091432 10 42 4.8 4.8 0.00 0.00 0.00 99 1014.9
20260508090930 10 83 0.0 1.6 0.00 0.00 0.00 99 1014.8
20260508090429 10 0 0.0 0.0 0.00 0.00 0.00 99 1015.0
20260508085923 10 0 0.0 0.0 0.00 0.00 0.00 99 1014.9
20260508085421 10 188 0.0 1.6 0.00 0.00 0.00 99 1014.7
20260508084917 10 14 0.0 0.0 0.00 0.00 0.00 99 1014.6
20260508084414 10 261 0.0 0.0 0.00 0.00 0.00 99 1014.4
20260508083912 10 261 0.0 0.0 0.00 0.00 0.00 99 1014.6
20260508083409 10 157 0.0 0.0 0.00 0.00 0.00 99 1014.8
20260508082909 10 354 0.0 0.0 0.00 0.00 0.00 99 1014.5
20260508082406 10 354 0.0 0.0 0.00 0.00 0.00 99 1014.5
20260508081904 10 354 0.0 0.0 0.00 0.00 0.00 99 1014.5
20260508081401 10 354 0.0 1.6 0.00 0.00 0.00 99 1014.6
20260508080857 10 14 0.0 1.6 0.00 0.00 0.00 99 1014.5
20260508080355 10 7 0.0 0.0 0.00 0.00 0.00 99 1014.4
20260508075852 10 20 1.6 3.2 0.00 0.00 0.00 99 1014.4
20260508075349 10 0 0.0 1.6 0.00 0.00 0.00 99 1014.6
20260508074847 10 6 1.6 3.2 0.00 0.00 0.00 98 1014.5
20260508074343 10 12 1.6 3.2 0.00 0.00 0.00 98 1014.3
20260508073840 10 18 0.0 3.2 0.00 0.00 0.00 98 1014.6
20260508073338 10 352 0.0 0.0 0.00 0.00 0.00 98 1014.5
20260508072835 10 15 0.0 0.0 0.00 0.00 0.00 98 1014.6
20260508072331 10 15 0.0 0.0 0.00 0.00 0.00 98 1014.5
20260508071828 10 15 0.0 0.0 0.00 0.00 0.00 98 1014.7
20260508071327 10 15 0.0 0.0 0.00 0.00 0.00 98 1014.7
20260508070824 10 15 0.0 0.0 0.00 0.00 0.00 98 1014.5
20260508070322 10 15 0.0 0.0 0.00 0.00 0.00 98 1014.6
20260508065819 10 15 0.0 0.0 0.00 0.00 0.00 97 1014.7
20260508065317 10 15 0.0 0.0 0.00 0.00 0.00 97 1014.6
20260508064815 10 15 0.0 0.0 0.00 0.00 0.00 97 1014.9
20260508064312 11 15 0.0 0.0 0.00 0.00 0.00 97 1014.7
20260508063810 11 15 0.0 0.0 0.00 0.00 0.00 97 1014.5
20260508063308 11 15 0.0 0.0 0.00 0.00 0.00 96 1014.6
20260508062805 11 15 0.0 0.0 0.00 0.00 0.00 96 1014.5
20260508062306 11 15 0.0 1.6 0.00 0.00 0.00 95 1014.3
20260508061759 11 180 0.0 0.0 0.00 0.00 0.00 95 1014.5
20260508061256 11 180 0.0 0.0 0.00 0.00 0.00 95 1014.7
20260508060753 11 15 0.0 0.0 0.00 0.00 0.00 95 1014.7
20260508060251 11 15 0.0 1.6 0.00 0.00 0.00 94 1014.5
20260508055746 11 20 1.6 3.2 0.00 0.00 0.00 93 1014.6
20260508055243 12 209 0.0 0.0 0.00 0.00 0.00 93 1014.5
20260508054739 12 209 0.0 1.6 0.00 0.00 0.00 92 1014.6
20260508054238 12 0 0.0 0.0 0.00 0.00 0.00 91 1014.6
20260508053734 12 8 0.0 1.6 0.00 0.00 0.00 90 1014.6
20260508053231 12 0 1.6 3.2 0.00 0.00 0.00 90 1014.8
20260508052728 12 188 0.0 1.6 0.00 0.00 0.00 89 1014.8
20260508052226 12 246 0.0 0.0 0.00 0.00 0.00 89 1014.8
20260508051722 12 352 0.0 0.0 0.00 0.00 0.00 90 1014.7
20260508051217 12 15 0.0 1.6 0.00 0.00 0.00 89 1014.8
20260508050714 13 180 0.0 3.2 0.00 0.00 0.00 88 1014.6
20260508050212 13 198 0.0 1.6 0.00 0.00 0.00 88 1014.7
20260508045706 13 0 0.0 0.0 0.00 0.00 0.00 88 1014.8
20260508045205 13 261 0.0 0.0 0.00 0.00 0.00 88 1014.8
20260508044702 13 270 0.0 0.0 0.00 0.00 0.00 88 1014.6
20260508044158 13 212 0.0 0.0 0.00 0.00 0.00 87 1014.5
20260508043654 13 234 0.0 1.6 0.00 0.00 0.00 86 1014.6
20260508043152 13 261 0.0 3.2 0.00 0.00 0.00 86 1014.5
20260508042648 13 261 0.0 1.6 0.00 0.00 0.00 86 1014.5
20260508042146 13 243 0.0 1.6 0.00 0.00 0.00 85 1014.4
20260508041642 13 203 0.0 1.6 0.00 0.00 0.00 85 1014.3
20260508041139 13 180 0.0 0.0 0.00 0.00 0.00 84 1014.7
20260508040635 13 180 0.0 0.0 0.00 0.00 0.00 84 1014.4
20260508040133 14 209 0.0 1.6 0.00 0.00 0.00 84 1014.3
20260508035630 13 195 0.0 1.6 0.00 2.59 2.59 83 1014.3
20260508035128 14 270 0.0 0.0 0.00 2.59 2.59 84 1014.3
20260508034624 14 270 0.0 0.0 0.00 2.59 2.59 83 1014.2
20260508034121 15 270 0.0 0.0 0.00 2.59 2.59 82 1014.0
20260508033619 15 270 0.0 1.6 0.00 2.59 2.59 82 1014.2
20260508033117 15 270 0.0 1.6 0.00 2.59 2.59 82 1014.2